This demonstration page uses our WeatherBlox Daily Observations layout. Learn more.

Left ArrowRight Arrow

39.95238, -75.16362

Hourly Observations for August 28, 2022

Temp ( °F °C ) Dew Point ( °F °C ) Humidity (%) Winds ( mph kmh ) Pressure ( in mb ) Visibility ( mi km ) Precip ( " mm )
12:54 am 00:54 Mostly Clear 76 24.4 69 20.6 79 79 ESE 6 9 30.06 1018 10 16 0.00 0.00
1:54 am 01:54 Mostly Clear 75 23.9 69 20.6 82 82 Calm 30.06 1018 10 16 0.00 0.00
2:54 am 02:54 Mostly Clear 75 23.9 69 20.6 82 82 ENE 3 6 30.06 1018 10 16 0.00 0.00
3:54 am 03:54 Mostly Cloudy 76 24.4 72 22.2 88 88 E 9 15 30.07 1018 9 14 0.00 0.00
4:07 am 04:07 Mostly Cloudy 75 23.9 72 22.2 90 90 ESE 9 15 30.08 1019 7 11 0.00 0.00
4:26 am 04:26 Mostly Cloudy with Mist and Fog 75 23.9 72 22.2 90 90 ESE 5 7 30.08 1019 6 10 0.00 0.00
4:54 am 04:54 Mostly Cloudy with Mist and Fog 75 23.9 72 22.2 90 90 ESE 7 11 30.08 1019 6 10 0.00 0.00
5:36 am 05:36 Cloudy 75 23.9 71 21.7 88 88 E 7 11 30.09 1019 7 11 0.00 0.00
5:54 am 05:54 Cloudy 75 23.9 72 22.2 90 90 E 9 15 30.09 1019 7 11 0.00 0.00
6:54 am 06:54 Mostly Cloudy 76 24.4 72 22.2 88 88 E 8 13 30.11 1020 7 11 0.00 0.00
7:21 am 07:21 Mostly Cloudy 76 24.4 72 22.2 88 88 ENE 9 15 30.12 1020 7 11 0.00 0.00
7:54 am 07:54 Mostly Cloudy 77 25 72 22.2 84 84 E 10 17 30.13 1020 7 11 0.00 0.00
8:17 am 08:17 Mostly Cloudy 78 25.6 72 22.2 82 82 E 8 13 30.14 1021 8 13 0.00 0.00
8:54 am 08:54 Mostly Cloudy 79 26.1 72 22.2 79 79 E 10 17 30.14 1021 9 14 0.00 0.00
9:54 am 09:54 Mostly Cloudy 83 28.3 72 22.2 70 70 ENE 9 15 30.14 1021 10 16 0.00 0.00
10:35 am 10:35 Mostly Cloudy 83 28.3 71 21.7 67 67 E 9 15 30.15 1021 10 16 0.00 0.00
10:54 am 10:54 Mostly Cloudy 85 29.4 71 21.7 63 63 E 10 17 30.14 1021 10 16 0.00 0.00
11:54 am 11:54 Mostly Cloudy 86 30 71 21.7 61 61 ENE 6 9 30.14 1021 10 16 0.00 0.00
12:54 pm 12:54 Mostly Cloudy 86 30 70 21.1 59 59 E 5 7 30.13 1020 10 16 0.00 0.00
1:54 pm 13:54 Partly Cloudy 91 32.8 72 22.2 54 54 E 12 19 30.11 1020 10 16 0.00 0.00
2:54 pm 14:54 Mostly Cloudy 88 31.1 71 21.7 57 57 E 16 26 30.10 1019 10 16 0.00 0.00
3:10 pm 15:10 Mostly Cloudy 85 29.4 71 21.7 63 63 SSE 15 24 30.11 1020 10 16 0.00 0.00
3:29 pm 15:29 Mostly Cloudy with Nearby Thunderstorms 80 26.7 72 22.2 76 76 SSE 17 28 30.11 1020 10 16 0.00 0.00
3:35 pm 15:35 Mostly Cloudy with Thunderstorms 80 26.7 72 22.2 76 76 SE 17 28 30.11 1020 10 16 0.00 0.00
3:59 pm 15:59 Mostly Cloudy 81 27.2 73 22.8 77 77 SE 12 19 30.11 1020 10 16 0.00 0.00
4:54 pm 16:54 Mostly Cloudy 84 28.9 73 22.8 70 70 SE 8 13 30.10 1019 10 16 0.00 0.00
5:54 pm 17:54 Mostly Cloudy 83 28.3 73 22.8 72 72 ESE 10 17 30.10 1019 10 16 0.00 0.00
6:54 pm 18:54 Mostly Cloudy 82 27.8 73 22.8 74 74 ESE 9 15 30.09 1019 10 16 0.00 0.00
7:54 pm 19:54 Mostly Cloudy 80 26.7 74 23.3 82 82 ESE 8 13 30.10 1019 10 16 0.00 0.00
8:54 pm 20:54 Mostly Cloudy 78 25.6 73 22.8 85 85 E 8 13 30.11 1020 10 16 0.00 0.00
9:54 pm 21:54 Mostly Cloudy 78 25.6 73 22.8 85 85 ESE 6 9 30.12 1020 10 16 0.00 0.00
10:02 pm 22:02 Cloudy 77 25 73 22.8 88 88 ESE 5 7 30.12 1020 8 13 0.00 0.00
10:54 pm 22:54 Cloudy 78 25.6 73 22.8 85 85 ESE 5 7 30.13 1020 8 13 0.00 0.00
11:09 pm 23:09 Mostly Cloudy 77 25 73 22.8 88 88 ESE 5 7 30.13 1020 10 16 0.00 0.00
11:41 pm 23:41 Mostly Cloudy 77 25 73 22.8 88 88 ESE 5 7 30.13 1020 10 16 0.00 0.00
11:54 pm 23:54 Mostly Cloudy 77 25 73 22.8 88 88 E 5 7 30.13 1020 8 13 0.00 0.00

Powered by AerisWeather